TimePST,TemperatureF,Dew PointF,Humidity,Sea Level PressureIn,VisibilityMPH,Wind Direction,Wind SpeedMPH,Gust SpeedMPH,PrecipitationIn,Events,Conditions,WindDirDegrees,DateUTC
12:12 AM,19.4,19.4,100,29.80,1.0,Calm,Calm,-,N/A,,Mostly Cloudy,0,2012-12-14 08:12:00
12:19 AM,21.2,19.4,93,29.79,0.5,South,3.5,-,N/A,Fog,Light Freezing Fog,170,2012-12-14 08:19:00
12:53 AM,27.0,26.1,96,29.85,0.5,SE,4.6,-,N/A,Fog,Light Freezing Fog,140,2012-12-14 08:53:00
1:53 AM,27.0,27.0,100,29.84,0.5,SE,5.8,-,N/A,,Overcast,140,2012-12-14 09:53:00
2:53 AM,28.0,27.0,96,29.81,0.5,Calm,Calm,-,N/A,,Overcast,0,2012-12-14 10:53:00
3:53 AM,26.6,26.6,100,29.74,6.0,SSE,4.6,-,N/A,,Overcast,160,2012-12-14 11:53:00
4:53 AM,27.0,26.1,96,29.79,7.0,Calm,Calm,-,N/A,,Overcast,0,2012-12-14 12:53:00
5:53 AM,26.1,25.0,96,29.80,10.0,Calm,Calm,-,N/A,,Overcast,0,2012-12-14 13:53:00
6:53 AM,27.0,26.1,96,29.80,10.0,Calm,Calm,-,N/A,,Mostly Cloudy,0,2012-12-14 14:53:00
7:53 AM,27.0,26.1,96,29.81,2.0,South,3.5,-,0.00,Snow,Light Snow,170,2012-12-14 15:53:00
8:00 AM,26.6,26.6,100,29.74,1.2,SSE,3.5,-,0.00,Snow,Light Snow,160,2012-12-14 16:00:00
8:53 AM,27.0,26.1,96,29.82,1.2,SSE,4.6,-,0.01,Snow,Light Snow,160,2012-12-14 16:53:00
9:53 AM,28.0,27.0,96,29.83,1.8,SSE,4.6,-,0.01,Snow,Light Snow,160,2012-12-14 17:53:00
9:57 AM,28.4,26.6,93,29.75,3.0,SSE,4.6,-,N/A,Snow,Light Snow,160,2012-12-14 17:57:00
10:35 AM,28.4,26.6,93,29.75,2.0,SSE,4.6,-,0.00,Snow,Light Snow,160,2012-12-14 18:35:00
10:45 AM,28.4,26.6,93,29.75,1.5,SE,4.6,-,0.00,Snow,Light Snow,140,2012-12-14 18:45:00
10:53 AM,28.0,27.0,96,29.83,2.5,SE,3.5,-,0.00,Snow,Light Snow,140,2012-12-14 18:53:00
11:05 AM,28.4,26.6,93,29.75,1.5,SSE,3.5,-,0.00,Snow,Light Snow,150,2012-12-14 19:05:00
11:31 AM,28.4,26.6,93,29.75,1.0,SSE,4.6,-,0.01,Snow,Light Snow,150,2012-12-14 19:31:00
11:53 AM,28.9,28.0,96,29.83,1.5,SE,3.5,-,0.01,Snow,Light Snow,140,2012-12-14 19:53:00
12:10 PM,30.2,28.4,93,29.75,1.5,SSE,4.6,-,0.00,Snow,Light Snow,160,2012-12-14 20:10:00
12:53 PM,30.0,28.0,92,29.82,1.5,Calm,Calm,-,0.01,Snow,Light Snow,0,2012-12-14 20:53:00
1:53 PM,30.0,28.9,96,29.83,1.0,Calm,Calm,-,0.01,Snow,Light Snow,0,2012-12-14 21:53:00
2:53 PM,30.0,28.9,96,29.84,1.5,Calm,Calm,-,0.01,Snow,Light Snow,0,2012-12-14 22:53:00
3:15 PM,30.2,28.4,93,29.78,1.5,West,3.5,-,0.00,Snow,Light Snow,270,2012-12-14 23:15:00
3:53 PM,30.0,28.9,96,29.86,1.5,WNW,4.6,-,0.01,Snow,Light Snow,290,2012-12-14 23:53:00
4:53 PM,28.9,28.0,96,29.89,1.5,West,3.5,-,0.00,Snow,Light Snow,260,2012-12-15 00:53:00
5:53 PM,28.9,28.0,96,29.89,2.0,WSW,4.6,-,0.00,,Overcast,250,2012-12-15 01:53:00
6:53 PM,28.0,28.0,100,29.90,2.0,Calm,Calm,-,0.00,Snow,Light Snow,0,2012-12-15 02:53:00
6:58 PM,28.4,28.4,100,29.83,7.0,Calm,Calm,-,0.00,,Overcast,0,2012-12-15 02:58:00
7:20 PM,28.4,26.6,93,29.84,7.0,West,3.5,-,0.00,,Overcast,280,2012-12-15 03:20:00
7:53 PM,28.0,27.0,96,29.92,10.0,Calm,Calm,-,0.00,,Overcast,0,2012-12-15 03:53:00
8:53 PM,28.0,27.0,96,29.92,10.0,SSW,3.5,-,N/A,,Overcast,210,2012-12-15 04:53:00
9:44 PM,28.4,26.6,93,29.86,10.0,WSW,3.5,-,N/A,,Overcast,240,2012-12-15 05:44:00
9:53 PM,28.0,27.0,96,29.94,10.0,WSW,3.5,-,N/A,,Overcast,240,2012-12-15 05:53:00
10:53 PM,28.0,27.0,96,29.95,7.0,West,3.5,-,N/A,,Overcast,260,2012-12-15 06:53:00
11:53 PM,28.0,28.0,100,29.95,7.0,Calm,Calm,-,N/A,,Overcast,0,2012-12-15 07:53:00